When you browse on this site, cookies collect data to enhance your experience and personalize the content and advertising you see.
Visit our Privacy Policy to learn more. By continuing to use the site, you agree to this use of cookies and data.
  • în România
  • Lista ţărilor
  • Pe 7 zile
  • Temperatura apei
  • Hartă satelitară
  • Meteo pe hartă
  • Widget-uri
  • user-avatar
    Intrare

    Meteo pe oră la Oslo

    Astăzi, 17 Iulie, Miercuri

    Timp Temperatura Precipitaţii Vânt Presiune Umiditate
    00:00 +12°C° 0 mm 0 m/s 751 mmHg 77%
    01:00 +12°C° 0 mm 0 m/s 751 mmHg 79%
    02:00 +11°C° 0 mm 0 m/s 751 mmHg 80%
    03:00 +11°C° 0 mm 0 m/s 751 mmHg 81%
    04:00 +11°C° 0 mm 0 m/s 751 mmHg 81%
    05:00 +13°C° 0 mm 0 m/s 751 mmHg 75%
    06:00 +16°C° 0 mm 1 m/s 750 mmHg 69%
    07:00 +19°C° 0 mm 1 m/s 751 mmHg 60%
    08:00 +21°C° 0 mm 1 m/s 750 mmHg 55%
    09:00 +21°C° 0 mm 2 m/s 750 mmHg 49%
    10:00 +24°C° 0 mm 3 m/s 750 mmHg 44%
    11:00 +24°C° 0 mm 3 m/s 750 mmHg 42%
    12:00 +25°C° 0 mm 4 m/s 750 mmHg 41%
    13:00 +26°C° 0 mm 4 m/s 749 mmHg 39%
    14:00 +25°C° 0 mm 4 m/s 749 mmHg 39%
    15:00 +25°C° 0 mm 4 m/s 749 mmHg 39%
    16:00 +25°C° 0 mm 5 m/s 749 mmHg 38%
    17:00 +23°C° 0 mm 4 m/s 749 mmHg 42%
    18:00 +21°C° 0 mm 4 m/s 749 mmHg 45%
    19:00 +20°C° 0 mm 3 m/s 748 mmHg 49%
    20:00 +18°C° 0 mm 3 m/s 749 mmHg 61%
    21:00 +16°C° 0 mm 2 m/s 749 mmHg 73%
    22:00 +13°C° 0 mm 2 m/s 749 mmHg 84%
    23:00 +13°C° 0 mm 2 m/s 749 mmHg 89%

    Mâine, 18 Iulie, Joi

    Timp Temperatura Precipitaţii Vânt Presiune Umiditate
    00:00 +12°C° 0 mm 1 m/s 749 mmHg 93%
    01:00 +12°C° 0 mm 1 m/s 749 mmHg 97%
    02:00 +12°C° 0 mm 1 m/s 749 mmHg 98%
    03:00 +12°C° 0 mm 1 m/s 749 mmHg 98%
    04:00 +12°C° 0 mm 1 m/s 749 mmHg 99%
    05:00 +14°C° 0 mm 2 m/s 749 mmHg 95%
    06:00 +15°C° 0 mm 2 m/s 749 mmHg 90%
    07:00 +16°C° 0 mm 3 m/s 749 mmHg 86%
    08:00 +17°C° 0 mm 3 m/s 749 mmHg 79%
    09:00 +18°C° 0 mm 3 m/s 749 mmHg 71%
    10:00 +20°C° 0 mm 4 m/s 749 mmHg 64%
    11:00 +20°C° 0 mm 4 m/s 749 mmHg 63%
    12:00 +20°C° 0 mm 4 m/s 749 mmHg 62%
    13:00 +21°C° 0 mm 5 m/s 749 mmHg 61%
    14:00 +21°C° 0 mm 5 m/s 749 mmHg 59%
    15:00 +22°C° 0 mm 4 m/s 749 mmHg 57%
    16:00 +22°C° 0 mm 4 m/s 749 mmHg 55%
    17:00 +21°C° 0 mm 4 m/s 749 mmHg 59%
    18:00 +20°C° 0 mm 4 m/s 749 mmHg 62%
    19:00 +19°C° 0 mm 3 m/s 749 mmHg 65%
    20:00 +17°C° 0 mm 3 m/s 749 mmHg 76%
    21:00 +16°C° 0 mm 2 m/s 750 mmHg 86%
    22:00 +14°C° 0 mm 1 m/s 750 mmHg 96%
    23:00 +13°C° 0 mm 1 m/s 750 mmHg 97%

    Poimâine, 19 Iulie, Vineri

    Timp Temperatura Precipitaţii Vânt Presiune Umiditate
    00:00 +13°C° 0 mm 1 m/s 750 mmHg 97%
    01:00 +13°C° 0 mm 1 m/s 750 mmHg 98%
    02:00 +13°C° 0 mm 1 m/s 750 mmHg 98%
    03:00 +12°C° 0 mm 0 m/s 750 mmHg 98%
    04:00 +12°C° 0 mm 0 m/s 750 mmHg 97%
    05:00 +13°C° 0.1 mm 0 m/s 750 mmHg 94%
    06:00 +15°C° 0.1 mm 1 m/s 750 mmHg 90%
    07:00 +16°C° 0.1 mm 1 m/s 750 mmHg 87%
    08:00 +16°C° 0.2 mm 1 m/s 750 mmHg 89%
    09:00 +16°C° 0.2 mm 1 m/s 750 mmHg 91%
    10:00 +16°C° 0.2 mm 1 m/s 750 mmHg 93%
    11:00 +18°C° 0.2 mm 1 m/s 750 mmHg 85%
    12:00 +19°C° 0.2 mm 2 m/s 750 mmHg 78%
    13:00 +20°C° 0.2 mm 2 m/s 750 mmHg 70%
    14:00 +21°C° 0.5 mm 2 m/s 750 mmHg 69%
    15:00 +21°C° 0.5 mm 3 m/s 750 mmHg 69%
    16:00 +21°C° 0.5 mm 3 m/s 750 mmHg 68%
    17:00 +21°C° 0 mm 3 m/s 750 mmHg 68%
    18:00 +20°C° 0 mm 3 m/s 750 mmHg 68%
    19:00 +20°C° 0 mm 3 m/s 750 mmHg 68%
    20:00 +18°C° 0 mm 2 m/s 750 mmHg 78%
    21:00 +16°C° 0 mm 2 m/s 750 mmHg 87%
    22:00 +14°C° 0 mm 1 m/s 751 mmHg 97%
    23:00 +14°C° 0 mm 1 m/s 751 mmHg 97%

    20 Iulie, Sâmbătă

    Timp Temperatura Precipitaţii Vânt Presiune Umiditate
    00:00 +13°C° 0 mm 1 m/s 751 mmHg 98%
    01:00 +12°C° 0 mm 0 m/s 751 mmHg 98%
    02:00 +11°C° 0 mm 0 m/s 751 mmHg 98%
    03:00 +11°C° 0 mm 0 m/s 751 mmHg 98%
    04:00 +11°C° 0 mm 0 m/s 751 mmHg 98%
    05:00 +12°C° 0 mm 0 m/s 751 mmHg 94%
    06:00 +14°C° 0 mm 0 m/s 751 mmHg 90%
    07:00 +15°C° 0 mm 0 m/s 751 mmHg 86%
    08:00 +19°C° 0 mm 1 m/s 752 mmHg 76%
    09:00 +21°C° 0 mm 1 m/s 752 mmHg 65%
    10:00 +22°C° 0 mm 1 m/s 752 mmHg 55%
    11:00 +23°C° 0 mm 2 m/s 752 mmHg 50%
    12:00 +24°C° 0 mm 2 m/s 752 mmHg 44%
    13:00 +25°C° 0 mm 2 m/s 751 mmHg 38%
    14:00 +25°C° 0 mm 2 m/s 751 mmHg 40%
    15:00 +25°C° 0 mm 3 m/s 751 mmHg 42%
    16:00 +25°C° 0 mm 3 m/s 751 mmHg 44%
    17:00 +24°C° 0 mm 2 m/s 751 mmHg 51%
    18:00 +23°C° 0 mm 2 m/s 751 mmHg 59%
    19:00 +21°C° 0 mm 2 m/s 751 mmHg 67%
    20:00 +20°C° 0 mm 1 m/s 751 mmHg 75%
    21:00 +19°C° 0 mm 1 m/s 751 mmHg 83%
    22:00 +16°C° 0 mm 1 m/s 751 mmHg 90%
    23:00 +15°C° 0 mm 0 m/s 751 mmHg 91%

    21 Iulie, Duminică

    Timp Temperatura Precipitaţii Vânt Presiune Umiditate
    00:00 +15°C° 0 mm 0 m/s 751 mmHg 92%
    01:00 +15°C° 0 mm 0 m/s 751 mmHg 93%
    02:00 +15°C° 0.2 mm 0 m/s 751 mmHg 95%
    03:00 +15°C° 0.2 mm 0 m/s 751 mmHg 96%
    04:00 +16°C° 0.2 mm 1 m/s 750 mmHg 98%
    05:00 +16°C° 0.1 mm 1 m/s 750 mmHg 97%
    06:00 +18°C° 0.1 mm 1 m/s 751 mmHg 96%
    07:00 +18°C° 0.1 mm 1 m/s 751 mmHg 94%
    08:00 +19°C° 0.1 mm 1 m/s 751 mmHg 89%
    09:00 +20°C° 0.1 mm 1 m/s 751 mmHg 84%
    10:00 +21°C° 0.1 mm 1 m/s 751 mmHg 79%
    11:00 +22°C° 0.6 mm 1 m/s 751 mmHg 77%
    12:00 +23°C° 0.6 mm 1 m/s 751 mmHg 74%
    13:00 +24°C° 0.6 mm 1 m/s 751 mmHg 72%
    14:00 +24°C° 0.5 mm 1 m/s 751 mmHg 73%
    15:00 +24°C° 0.5 mm 1 m/s 751 mmHg 73%
    16:00 +23°C° 0.5 mm 1 m/s 751 mmHg 74%
    17:00 +23°C° 1 mm 1 m/s 751 mmHg 79%
    18:00 +22°C° 1 mm 1 m/s 751 mmHg 84%
    19:00 +20°C° 1 mm 0 m/s 751 mmHg 89%
    20:00 +18°C° 0.3 mm 0 m/s 751 mmHg 91%
    21:00 +17°C° 0.3 mm 0 m/s 752 mmHg 93%
    22:00 +16°C° 0.3 mm 0 m/s 752 mmHg 95%
    23:00 +15°C° 0.1 mm 0 m/s 752 mmHg 96%

    22 Iulie, Luni

    Timp Temperatura Precipitaţii Vânt Presiune Umiditate
    00:00 +16°C° 0.1 mm 1 m/s 753 mmHg 96%
    01:00 +15°C° 0.1 mm 1 m/s 753 mmHg 97%
    02:00 +15°C° 0 mm 1 m/s 754 mmHg 97%
    03:00 +15°C° 0 mm 1 m/s 754 mmHg 97%
    04:00 +15°C° 0 mm 1 m/s 754 mmHg 98%
    05:00 +16°C° 0 mm 1 m/s 754 mmHg 96%
    06:00 +18°C° 0 mm 1 m/s 755 mmHg 94%
    07:00 +19°C° 0 mm 1 m/s 755 mmHg 92%
    08:00 +20°C° 0 mm 1 m/s 755 mmHg 86%
    09:00 +21°C° 0 mm 1 m/s 756 mmHg 81%
    10:00 +22°C° 0 mm 1 m/s 756 mmHg 75%
    11:00 +24°C° 0 mm 1 m/s 756 mmHg 68%
    12:00 +25°C° 0 mm 1 m/s 756 mmHg 62%
    13:00 +27°C° 0 mm 1 m/s 756 mmHg 55%
    14:00 +27°C° 0 mm 1 m/s 756 mmHg 53%
    15:00 +27°C° 0 mm 2 m/s 756 mmHg 52%
    16:00 +27°C° 0 mm 2 m/s 756 mmHg 50%
    17:00 +26°C° 0 mm 2 m/s 756 mmHg 54%
    18:00 +26°C° 0 mm 2 m/s 756 mmHg 58%
    19:00 +25°C° 0 mm 2 m/s 756 mmHg 62%
    20:00 +23°C° 0 mm 2 m/s 757 mmHg 71%
    21:00 +21°C° 0 mm 1 m/s 757 mmHg 80%
    22:00 +18°C° 0 mm 1 m/s 757 mmHg 89%
    23:00 +18°C° 0 mm 1 m/s 757 mmHg 91%
    Arată mai mult